Погода в Южном

Россия / Ростовская область     47°20′21″N   41°51′50″E
темп.,
°C
ветер,
м/с
пор.,
м/с
влажн.,
%
обл.,
%
осадки,
мм/ч
давл.,
гПа
погр.,
м
25 мая, ср
ср2500:00+11юз226386 0.0 101429
03:00+10зюз337466 0.0 101431
06:00+10зюз36805 0.0 1016157
09:00+16з465530 0.0 1016743
12:00+19з453774 0.0 10172604
15:00+17з4858100 0.0 1018454
18:00+18з465746 0.0 1018829
21:00+13зюз4770100 0.0 1019131
26 мая, чт
чт2600:00+11зюз367868 0.0 1019111
03:00+11з377984 0.0 1020163
06:00+12зюз368194 0.0 1020150
09:00+18з455962 0.0 1020689
12:00+21з5546100 0.0 10192452
15:00+20зюз555198 0.0 10191356
18:00+19зюз4760100 0.0 1018311
21:00+16юз3666100 0.0 1018130
27 мая, пт
пт2700:00+14зюз3673100 0.0 1018101
03:00+14зюз3875100 0.0 1017266
06:00+14юз4975100 0.0 1017326
09:00+18зюз796499 0.0 10171208
12:00+21з795018 0.0 10162049
15:00+22з8104964 0.0 10151973
18:00+21з68592 0.0 10151011
21:00+16з387615 0.1 1017183
28 мая, сб
сб2800:00+14зюз358953 0.0 101782
03:00+13юз33905 0.0 101731
06:00+15ююз48800 0.0 1016185
09:00+20юз56590 0.0 1016637
12:00+24юз44475 0.0 10161572
15:00+25ююз334429 0.0 10152010
18:00+24ю24535 0.0 1015363
21:00+18ююв22672 0.0 101611
29 мая, вс
вс2900:00+17вюв226618 0.0 101515
03:00+16вюв34643 0.0 101547
06:00+18ю28740 0.0 1015187
09:00+24ююв46470 0.0 1015686
12:00+27ююв44360 0.0 10151441
15:00+27ююв34370 0.0 10151635
18:00+26ю22475 0.0 1015174
21:00+20в11520 0.0 101511